Sterling, IL

7:30 PM CST on November 20, 2019 (GMT -0600)
Whiteside County-Bittorf

Weather History for KSQI - September, 2019

Change the Weather History Date:

Saturday, September 21, 2019

  Actual Average Record
Temperature  
Mean Temperature 74 °F -  
Max Temperature 79 °F 70 °F 91 °F (2007)
Min Temperature 71 °F 47 °F 39 °F (2006)
Cooling Degree Days 10    
Growing Degree Days 24 (Base 50)    
Moisture  
Dew Point 71 °F    
Average Humidity 94    
Maximum Humidity 100    
Minimum Humidity 83    
Precipitation  
Precipitation 0.00 in - - ()
Sea Level Pressure  
Sea Level Pressure 29.79 in    
Wind  
Wind Speed 4 mph ()    
Max Wind Speed 8 mph    
Max Gust Speed -    
Visibility 9.0 miles    
Events Rain , Thunderstorm    
Averages and records for this station are not official NWS values.
T = Trace of Precipitation, MM = Missing Value Source: Averaged Metar Reports

Daily Weather History Graph

Daily Weather History Graph

Search for Another Location

Airport or City:

Astronomy

Sep. 21, 2019 Rise Set
Actual Time 6:44 AM CDT 6:58 PM CDT
Civil Twilight 6:17 AM CDT 7:25 PM CDT
Nautical Twilight 5:44 AM CDT 7:58 PM CDT
Astronomical Twilight 5:11 AM CDT 8:31 PM CDT
Moon 11:30 PM CDT 1:56 PM CDT
Length of Visible Light 13h 08m
Length of Day
12h 13m
Waning Gibbous, 54% of the Moon is Illuminated
Sep 21
Waning Gibbous
Sep 21
Last Quarter
Sep 28
New
Oct 5
First Quarter
Oct 13
Full

Hourly Weather History & Observations

Time (CDT) Temp. Dew Point Humidity Pressure Visibility Wind Dir Wind Speed Gust Speed Precip Events Conditions
12:56 AM 71.1 °F 69.1 °F 93% 29.65 in 10.0 mi SE 3.5 mph - N/A   Clear
1:56 AM 73.9 °F 69.1 °F 85% 29.66 in 10.0 mi Variable 3.5 mph - N/A   Clear
2:56 AM 72.0 °F 69.1 °F 91% 29.65 in 10.0 mi Variable 4.6 mph - N/A   Clear
3:56 AM 72.0 °F 69.1 °F 91% 29.65 in 10.0 mi South 4.6 mph - N/A   Mostly Cloudy
4:56 AM 72.0 °F 69.1 °F 91% 29.66 in 10.0 mi Variable 4.6 mph - N/A   Partly Cloudy
5:56 AM 72.0 °F 69.1 °F 91% 29.66 in 10.0 mi Variable 4.6 mph - N/A   Overcast
6:56 AM 72.0 °F 69.1 °F 91% 29.66 in 10.0 mi Variable 4.6 mph - 0.00 in Rain Light Rain
7:06 AM 71.6 °F 69.8 °F 94% 30.06 in 10.0 mi Variable 4.6 mph - 0.00 in Rain Light Rain
7:56 AM 71.1 °F 70.0 °F 96% 29.66 in 10.0 mi Variable 4.6 mph - N/A   Overcast
8:56 AM 72.0 °F 70.0 °F 93% - 7.0 mi North - - N/A Rain Light Rain
9:25 AM 71.6 °F 69.8 °F 94% - 4.0 mi North - - N/A Rain Rain
9:49 AM 71.6 °F 69.8 °F 94% 30.05 in 2.5 mi Variable 6.9 mph - N/A Rain Light Rain
9:56 AM 71.1 °F 70.0 °F 96% 29.65 in 7.0 mi Variable 5.8 mph - N/A Rain Light Rain
10:06 AM 71.6 °F 69.8 °F 94% 30.05 in 10.0 mi Variable 4.6 mph - N/A Rain Light Rain
10:25 AM 71.6 °F 69.8 °F 94% 30.05 in 4.0 mi Variable 5.8 mph - N/A Rain , Thunderstorm Light Thunderstorms and Rain
10:49 AM 71.6 °F 69.8 °F 94% 30.06 in 9.0 mi SW 4.6 mph - N/A Rain , Thunderstorm Light Thunderstorms and Rain
10:56 AM 71.1 °F 70.0 °F 96% 29.65 in 10.0 mi Variable 3.5 mph - N/A Rain Light Rain
11:56 AM 72.0 °F 71.1 °F 97% 29.65 in 10.0 mi Calm Calm - N/A Rain Light Rain
12:56 PM 73.0 °F 72.0 °F 96% 29.64 in 10.0 mi Calm Calm - N/A Rain Light Rain
1:56 PM 75.0 °F 73.9 °F 96% 29.61 in 10.0 mi SSE 4.6 mph - N/A   Overcast
2:45 PM 77.0 °F 73.4 °F 89% 30.00 in 10.0 mi South 8.1 mph - N/A   Mostly Cloudy
2:56 PM 78.1 °F 73.0 °F 84% 29.59 in 10.0 mi Variable 5.8 mph - N/A   Mostly Cloudy
3:13 PM 78.8 °F 73.4 °F 83% 29.99 in 10.0 mi Variable 6.9 mph - N/A   Mostly Cloudy
3:22 PM 78.8 °F 73.4 °F 83% 29.99 in 10.0 mi Variable 6.9 mph - N/A   Mostly Cloudy
3:56 PM 77.0 °F 72.0 °F 84% - 5.0 mi North - - N/A Rain , Thunderstorm Light Rain
4:22 PM 73.4 °F 73.4 °F 100% 30.00 in 7.0 mi Variable 3.5 mph - N/A Rain Light Rain
4:52 PM 73.4 °F 73.4 °F 100% 30.00 in 10.0 mi Variable 4.6 mph - N/A   Overcast
4:56 PM 73.9 °F 73.0 °F 97% 29.60 in 10.0 mi Variable 4.6 mph - N/A   Overcast
5:53 PM 73.4 °F 73.4 °F 100% 29.99 in 10.0 mi Variable 4.6 mph - N/A   Overcast
5:56 PM 73.9 °F 72.0 °F 93% 29.60 in 10.0 mi Variable 5.8 mph - N/A   Overcast
6:00 PM 73.4 °F 71.6 °F 94% 29.99 in 9.0 mi Variable 6.9 mph - N/A Rain Rain
6:06 PM 73.4 °F 71.6 °F 94% 30.00 in 7.0 mi Variable 6.9 mph - N/A Rain Rain
6:14 PM 73.4 °F 71.6 °F 94% 29.99 in 7.0 mi Variable 6.9 mph - N/A Rain Light Rain
6:46 PM 71.6 °F 71.6 °F 100% 30.00 in 10.0 mi Variable 4.6 mph - N/A Rain Light Rain
6:56 PM 72.0 °F 72.0 °F 100% 29.60 in 10.0 mi Variable 3.5 mph - N/A   Overcast
7:56 PM 72.0 °F 71.1 °F 97% 29.61 in 10.0 mi Variable 3.5 mph - N/A Rain Light Rain
8:39 PM 71.6 °F 71.6 °F 100% - 10.0 mi North - - N/A Rain Light Rain
8:51 PM 71.6 °F 71.6 °F 100% 30.00 in 10.0 mi South 6.9 mph - N/A Rain Light Rain
8:56 PM 72.0 °F 71.1 °F 97% 29.61 in 10.0 mi Variable 4.6 mph - N/A Rain Light Rain
9:56 PM 72.0 °F 71.1 °F 97% 29.60 in 10.0 mi Variable 4.6 mph - N/A   Scattered Clouds
10:56 PM 72.0 °F 71.1 °F 97% 29.59 in 10.0 mi Variable 3.5 mph - N/A   Mostly Cloudy
11:56 PM 72.0 °F 71.1 °F 97% 29.58 in 10.0 mi Calm Calm - N/A   Clear